[[{"header":{"parameterUnit":"m.s-1","parameterCategory":2,"la1":30.2991,"la2":30.254,"lo1":-89.0895,"lo2":-89.0444,"dy":0.0017,"dx":0.0017,"nx":28,"ny":28,"refTime":"2024-06-24T03:00:00:Z","depth":"0","parameterNumber":2,"parameterNumberName":"U-component_of_CURRENTS"},"data":[0,0,0,0,0,0,0,0,0,0,0,0,0,0,0,0,0,0,0,0,0,0,0,0,0,0,0,0,0,0,0,0,0,0,0,0,0,0,0,0,0,0,0,0,0,0,0,0,0,0,0,0,0,0,0,0,0,0,0.4992,0.4994,0,0.5246,0.525,0.5254,0.5549,0.5552,0.5556,0.5558,0.5978,0.5986,0.5994,0,0,0,0,0,0,0,0,0,0,0,0,0,0.4694,0.4699,0.4992,0.4994,0.4996,0.5246,0.5251,0.5255,0.5549,0.5553,0.5556,0.556,0.5975,0.5985,0.5995,0,0,0,0,0,0,0,0,0,0,0,0,0,0.4887,0.4701,0.4992,0.5162,0.5178,0.5245,0.5251,0.5257,0.5548,0.5553,0.5557,0.5562,0.5972,0.5984,0.5996,0.5979,0,0,0.6034,0.604,0,0,0,0,0,0,0,0,0.4876,0.49,0.5135,0.515,0.5168,0.5358,0.5298,0.5502,0.5547,0.5423,0.5559,0.5564,0.5773,0.5802,0.5858,0.5999,0.6017,0.6035,0.6043,0.6048,0.6052,0,0,0,0,0,0,0,0.4862,0.4889,0.5108,0.5136,0.5156,0.52,0.5236,0.5338,0.5583,0.5434,0.5452,0.5456,0.5786,0.5845,0.587,0.6023,0.6035,0.6046,0.6054,0.6058,0.6306,0.6305,0,0,0,0,0,0,0.48,0.4877,0.5099,0.5114,0.5014,0.5201,0.5241,0.5304,0.5579,0.562,0.5452,0.5468,0.5822,0.5855,0.5886,0.608,0.6048,0.606,0.6067,0.6306,0.6305,0.6304,0,0,0,0,0,0,0.4794,0.482,0.5089,0.4986,0.5021,0.5201,0.527,0.5307,0.5372,0.5588,0.5636,0.5477,0.5827,0.5869,0.6031,0.6091,0.6065,0.6076,0.6307,0.6306,0.6305,0.6341,0,0,0,0,0,0,0.4786,0.4818,0.4833,0.4983,0.5025,0.5164,0.5265,0.5308,0.5359,0.5384,0.5624,0.5669,0.5834,0.6011,0.6043,0.6108,0.6086,0.6309,0.6307,0.6305,0.6341,0.6341,0.6342,0,0,0,0,0,0.4775,0.4802,0.4834,0.4859,0.5046,0.5163,0.5192,0.5341,0.5354,0.5409,0.5572,0.5662,0.6022,0.6022,0.6059,0.6129,0.6309,0.6307,0.6305,0.6341,0.6341,0.6341,0,0,0,0,0,0,0.4696,0.4836,0.4876,0.4948,0.5048,0.5209,0.5263,0.5301,0.546,0.5496,0.5671,0.573,0.5903,0.5961,0.5954,0.6178,0.6169,0.6174,0.6183,0.6184,0.6184,0.6155,0.6096,0,0,0,0,0,0.4665,0.4734,0.4855,0.4915,0.4964,0.5083,0.5133,0.5226,0.5371,0.5445,0.56,0.5751,0.5912,0.6004,0.6155,0.626,0.6257,0.6311,0.6311,0.6311,0.6303,0.6346,0.6351,0.6298,0.6298,0.6298,0,0,0.4647,0.4729,0.4768,0.4899,0.5,0.5093,0.5137,0.5232,0.5327,0.5459,0.5648,0.577,0.5935,0.6118,0.6191,0.6185,0.6314,0.6309,0.631,0.63,0.6345,0.6351,0.6356,0.6297,0.6297,0.6297,0,0,0.4677,0.4727,0.4812,0.4879,0.4998,0.5082,0.5084,0.5236,0.5342,0.5494,0.5623,0.5747,0.5984,0.6125,0.622,0.6266,0.6319,0.6308,0.6305,0.6348,0.6354,0.6359,0.6326,0.6328,0.6304,0.6304,0.6304,0,0.4653,0.4769,0.4846,0.4935,0.4978,0.5063,0.5142,0.5259,0.5442,0.5524,0.5571,0.587,0.5993,0.6191,0.6236,0.6277,0.6284,0.6314,0.6353,0.6358,0.6363,0.6328,0.633,0.6306,0.6306,0.6306,0.6305,0,0.4777,0.4827,0.4878,0.5026,0.5081,0.5157,0.5288,0.5383,0.547,0.5587,0.5785,0.5944,0.6109,0.6162,0.6243,0.634,0.6326,0.6359,0.6364,0.6372,0.6332,0.6333,0.6308,0.6308,0.6307,0.6307,0,0,0.478,0.4945,0.494,0.4991,0.5116,0.5179,0.5323,0.5484,0.5578,0.5751,0.5876,0.6107,0.6141,0.6236,0.6316,0.6352,0.6376,0.6369,0.6371,0.6352,0.643,0.6266,0.6251,0.6444,0.6445,0.6446,0.6376,0,0.4846,0.5019,0.5054,0.5145,0.5234,0.5293,0.541,0.555,0.5695,0.5846,0.5986,0.6151,0.619,0.6257,0.6305,0.6391,0.6388,0.6388,0.6409,0.6407,0.6278,0.6251,0.5913,0.5811,0.6377,0.6377,0.6377,0,0.4918,0.5023,0.5168,0.5218,0.5254,0.53,0.5447,0.5557,0.5775,0.589,0.6043,0.6165,0.6281,0.6279,0.6387,0.6399,0.6393,0.642,0.6419,0.6255,0.6247,0.5899,0.5792,0.5667,0.6379,0.6379,0.6379,0,0.4916,0.503,0.5149,0.518,0.5316,0.5345,0.5387,0.5576,0.5667,0.5891,0.5971,0.6165,0.6231,0.6304,0.6379,0.6391,0.6456,0.6473,0.6298,0.6285,0.5988,0.5946,0.5772,0.6479,0.648,0.648,0.648,0,0.4948,0.4989,0.5147,0.5206,0.526,0.5329,0.5399,0.5502,0.5646,0.5744,0.595,0.6048,0.6243,0.6332,0.6377,0.6338,0.6446,0.6269,0.6261,0.5982,0.5943,0.5814,0.5796,0.6477,0.6478,0.6478,0.6479,0,0.4913,0.5039,0.5134,0.5264,0.5271,0.5299,0.5318,0.5391,0.5531,0.5648,0.5706,0.5953,0.6061,0.6208,0.6319,0.6284,0.6102,0.6246,0.5871,0.5817,0.5487,0.5481,0.5141,0.5011,0.5999,0.5995,0.5991,0,0.492,0.5007,0.5148,0.516,0.5189,0.522,0.5241,0.5337,0.5393,0.5584,0.5625,0.5786,0.5893,0.5984,0.5962,0.5952,0.5894,0.5621,0.5561,0.5387,0.5379,0.5269,0.518,0.5164,0.5154,0.5146,0.5139,0,0.4888,0.4964,0.5051,0.5092,0.5092,0.5109,0.5116,0.5135,0.5265,0.5339,0.5445,0.5537,0.5621,0.5488,0.5479,0.5451,0.5318,0.5443,0.5373,0.4777,0.4534,0.443,0.5274,0.5065,0.5072,0.5078,0.5082,0.5085,0.4804,0.483,0.4927,0.492,0.4939,0.4915,0.4832,0.4885,0.4885,0.4879,0.5134,0.5098,0.5088,0.5013,0.4964,0.463,0.4762,0.4465,0.4489,0.4409,0.4208,0.4851,0.4586,0.459,0.4594,0.4598,0.4601,0,0.462,0.466,0.4702,0.4662,0.4596,0.4679,0.467,0.4554,0.4446,0.4548,0.4561,0.4422,0.4234,0.4202,0.3918,0.373,0.3611,0.3644,0.3422,0.3403,0.404,0.3932,0.3377,0.3377,0.3377,0.3378,0.3378,0.3378,0.4507,0.4476,0.4499,0.4288,0.426,0.4074,0.4021,0.3933,0.3928,0.3737,0.3607,0.3642,0.3702,0.3499,0.3212,0.3122,0.2967,0.2738,0.2908,0.3377,0.3457,0.3533,0.3427,0.2776,0.2776,0.207,0.2064,0.206]},{"header":{"parameterUnit":"m.s-1","parameterCategory":2,"la1":30.2991,"la2":30.254,"lo1":-89.0895,"lo2":-89.0444,"dy":0.0017,"dx":0.0017,"nx":28,"ny":28,"refTime":"2024-06-24T03:00:00:Z","depth":"0","parameterNumber":3,"parameterNumberName":"V-component_of_CURRENTS"},"data":[0,0,0,0,0,0,0,0,0,0,0,0,0,0,0,0,0,0,0,0,0,0,0,0,0,0,0,0,0,0,0,0,0,0,0,0,0,0,0,0,0,0,0,0,0,0,0,0,0,0,0,0,0,0,0,0,0,0,-0.005,-0.0052,0,-0.0267,-0.027,-0.0274,-0.0422,-0.0422,-0.0422,-0.0422,-0.0696,-0.0703,-0.071,0,0,0,0,0,0,0,0,0,0,0,0,0,0.0048,0.0047,-0.005,-0.0052,-0.0053,-0.0266,-0.027,-0.0275,-0.0422,-0.0422,-0.0422,-0.0422,-0.0693,-0.0702,-0.0711,0,0,0,0,0,0,0,0,0,0,0,0,0,-0.0076,0.0047,-0.005,-0.0143,-0.0153,-0.0265,-0.027,-0.0276,-0.0422,-0.0422,-0.0422,-0.0422,-0.069,-0.0701,-0.0712,-0.0784,0,0,-0.0746,-0.0751,0,0,0,0,0,0,0,0,-0.0069,-0.0081,-0.0128,-0.0137,-0.0147,-0.0306,-0.0336,-0.0444,-0.0422,-0.0334,-0.0422,-0.0422,-0.0562,-0.0584,-0.0643,-0.0797,-0.0808,-0.0747,-0.0754,-0.0759,-0.0762,0,0,0,0,0,0,0,-0.006,-0.0074,-0.0149,-0.0129,-0.0141,-0.0237,-0.0254,-0.0359,-0.0457,-0.0341,-0.0349,-0.0353,-0.057,-0.0632,-0.065,-0.0812,-0.0747,-0.0757,-0.0763,-0.0768,-0.0997,-0.0996,0,0,0,0,0,0,0.0003,-0.0064,-0.0142,-0.0154,-0.0092,-0.0237,-0.0257,-0.0266,-0.0455,-0.048,-0.0353,-0.0358,-0.0613,-0.0637,-0.066,-0.0723,-0.0758,-0.0769,-0.0775,-0.0997,-0.0996,-0.0996,0,0,0,0,0,0,0.0006,-0.0002,-0.0133,-0.0104,-0.0125,-0.0236,-0.0247,-0.027,-0.0317,-0.0461,-0.0489,-0.0371,-0.0614,-0.0645,-0.0756,-0.0736,-0.0774,-0.0784,-0.0998,-0.0997,-0.0996,-0.087,0,0,0,0,0,0,0.0009,-0.0,0.0002,-0.0099,-0.0124,-0.0184,-0.0246,-0.0274,-0.0313,-0.0324,-0.0486,-0.0513,-0.0616,-0.0739,-0.0767,-0.0752,-0.0793,-0.0999,-0.0997,-0.0996,-0.0875,-0.0865,-0.0857,0,0,0,0,0,0.0013,0.0023,0.0004,-0.0006,-0.0113,-0.0182,-0.0206,-0.0294,-0.0313,-0.0337,-0.0451,-0.0507,-0.075,-0.0749,-0.0781,-0.0769,-0.0999,-0.0998,-0.0996,-0.0879,-0.0867,-0.0857,0,0,0,0,0,0,0.0056,0.0008,-0.0016,-0.0025,-0.0086,-0.0202,-0.0229,-0.0274,-0.0385,-0.0396,-0.0528,-0.0565,-0.0648,-0.0725,-0.072,-0.0828,-0.0872,-0.0877,-0.0772,-0.0762,-0.0752,-0.0679,-0.0802,0,0,0,0,0,0.0077,0.0072,0.0007,-0.0004,-0.0023,-0.0119,-0.0157,-0.021,-0.0309,-0.0357,-0.046,-0.057,-0.0672,-0.0728,-0.0832,-0.0906,-0.0887,-0.0909,-0.0899,-0.0891,-0.0852,-0.0803,-0.0784,-0.0992,-0.0992,-0.0992,0,0,0.0091,0.0064,0.006,0.0006,-0.0053,-0.0073,-0.0146,-0.0191,-0.0216,-0.0369,-0.0442,-0.0549,-0.0685,-0.0771,-0.0811,-0.0832,-0.0821,-0.0889,-0.0881,-0.0846,-0.0799,-0.0778,-0.076,-0.0991,-0.0991,-0.0991,0,0,0.0112,0.0096,0.0095,0.0068,0.0014,-0.004,-0.0033,-0.0128,-0.0181,-0.0263,-0.0371,-0.0452,-0.0616,-0.07,-0.0766,-0.0762,-0.0775,-0.0795,-0.0695,-0.0648,-0.0629,-0.0612,-0.0545,-0.0524,-0.0788,-0.0788,-0.0788,0,0.0134,0.0128,0.0081,0.008,0.0079,-0.0003,0.0005,-0.0065,-0.0185,-0.0209,-0.0261,-0.0452,-0.0572,-0.0653,-0.0662,-0.0737,-0.0702,-0.0729,-0.063,-0.0613,-0.0598,-0.0534,-0.0511,-0.0782,-0.0782,-0.0783,-0.0784,0,0.0149,0.0157,0.0159,0.0144,0.0131,0.0124,0.0064,0.0032,-0.0022,-0.0085,-0.0165,-0.0328,-0.042,-0.0481,-0.0586,-0.0553,-0.0559,-0.0621,-0.0644,-0.0568,-0.0507,-0.0486,-0.0773,-0.0775,-0.0777,-0.0778,0,0,0.0197,0.0172,0.0185,0.0201,0.0177,0.0172,0.0159,0.0123,0.0141,0.0018,0.003,-0.0161,-0.0213,-0.0288,-0.0413,-0.0399,-0.0285,-0.0454,-0.0454,-0.0361,-0.0143,-0.0166,-0.0146,-0.0319,-0.0315,-0.0312,-0.0136,0,0.023,0.0247,0.0236,0.0284,0.0298,0.027,0.0278,0.0246,0.0198,0.0187,0.0052,0.0002,-0.0151,-0.0181,-0.0193,-0.0274,-0.0224,-0.0324,-0.0253,-0.025,-0.0258,-0.0121,-0.0126,0.0029,-0.0116,-0.0112,-0.011,0,0.0274,0.0282,0.032,0.0372,0.0384,0.0405,0.0453,0.0449,0.0416,0.0387,0.0333,0.0235,0.0187,0.0072,0.0045,-0.0007,-0.0037,-0.0088,-0.0083,-0.0126,-0.0233,-0.0077,0.0073,-0.0093,-0.0077,-0.008,-0.0082,0,0.0344,0.0371,0.0406,0.0422,0.0447,0.048,0.0505,0.0508,0.0543,0.0537,0.058,0.0483,0.0472,0.0407,0.0269,0.019,0.0284,0.0158,0.0124,0.0122,0.0123,0.0114,0.0146,0.0224,0.0224,0.0223,0.0223,0,0.0411,0.0459,0.044,0.0471,0.0562,0.0561,0.0663,0.0679,0.0722,0.0811,0.0699,0.0759,0.0568,0.0553,0.0411,0.0356,0.0412,0.0206,0.0185,0.0163,0.0156,0.0009,-0.0094,0.023,0.0228,0.0227,0.0226,0,0.0511,0.0479,0.054,0.0568,0.0595,0.0672,0.0784,0.0865,0.0896,0.1021,0.1042,0.1017,0.1016,0.0836,0.0756,0.0572,0.0421,0.0467,0.0458,0.0433,0.0184,0.0088,0.0135,0.0093,0.0466,0.0467,0.0467,0,0.0565,0.0594,0.0637,0.0701,0.0724,0.0823,0.0914,0.0954,0.1047,0.1186,0.1268,0.1304,0.1352,0.1219,0.0932,0.0753,0.0549,0.0591,0.0413,0.0236,0.0114,0.002,-0.0026,0.0477,0.0478,0.0478,0.0479,0,0.0709,0.0708,0.0763,0.0863,0.0952,0.105,0.1166,0.1253,0.1335,0.1465,0.1638,0.1701,0.1578,0.1382,0.1097,0.0923,0.047,0.0594,0.0426,0.0167,0.006,-0.0014,0.0297,0.0483,0.0483,0.0483,0.0482,0.0482,0.0844,0.091,0.0965,0.1069,0.1155,0.1256,0.135,0.1484,0.1653,0.1844,0.19,0.2049,0.1718,0.1332,0.1085,0.0564,0.0554,0.0349,0.0269,0.0207,0.0103,0.0434,0.0561,0.0561,0.0561,0.0561,0.0561,0,0.1009,0.1069,0.1184,0.1266,0.1352,0.1361,0.1513,0.1608,0.1811,0.204,0.22,0.2142,0.1761,0.1311,0.0613,0.0264,0.0131,0.0078,-0.0065,-0.0082,0.0243,0.0171,0.02,0.02,0.02,0.02,0.0201,0.0201,0.1106,0.1234,0.1264,0.1412,0.1467,0.1565,0.1635,0.1797,0.1964,0.2217,0.2331,0.2394,0.2041,0.0859,0.0076,-0.0091,-0.0318,-0.0359,-0.0449,-0.0282,-0.0265,-0.0249,-0.0341,-0.042,-0.042,-0.0752,-0.0755,-0.0758]}],[{"header":{"parameterUnit":"m.s-1","parameterCategory":2,"la1":30.2991,"la2":30.254,"lo1":-89.0895,"lo2":-89.0444,"dy":0.0017,"dx":0.0017,"nx":28,"ny":28,"refTime":"2024-06-24T03:00:00:Z","depth":"2","parameterNumber":2,"parameterNumberName":"U-component_of_CURRENTS"},"data":[0,0,0,0,0,0,0,0,0,0,0,0,0,0,0,0,0,0,0,0,0,0,0,0,0,0,0,0,0,0,0,0,0,0,0,0,0,0,0,0,0,0,0,0,0,0,0,0,0,0,0,0,0,0,0,0,0,0,0.3412,0.3414,0,0.3459,0.3459,0.3458,0.3384,0.3383,0.3382,0.338,0.3298,0.3297,0.3296,0,0,0,0,0,0,0,0,0,0,0,0,0,0.3338,0.3338,0.3412,0.3414,0.3416,0.3459,0.3459,0.3458,0.3384,0.3383,0.3381,0.338,0.3298,0.3297,0.3296,0,0,0,0,0,0,0,0,0,0,0,0,0,0.3363,0.3338,0.3412,0.3394,0.3394,0.3459,0.3459,0.3458,0.3385,0.3383,0.3381,0.3379,0.3299,0.3297,0.3296,0.3326,0,0,0.3291,0.3291,0,0,0,0,0,0,0,0,0.3362,0.3364,0.3395,0.3396,0.3396,0.3426,0.3403,0.3412,0.3385,0.3374,0.338,0.3378,0.3339,0.3334,0.333,0.3322,0.3319,0.3291,0.329,0.329,0.3289,0,0,0,0,0,0,0,0.336,0.3363,0.3417,0.3398,0.3398,0.3413,0.3412,0.3404,0.3354,0.3375,0.3373,0.34,0.3336,0.3331,0.3327,0.3317,0.3291,0.329,0.3289,0.3289,0.3581,0.3589,0,0,0,0,0,0,0.338,0.3361,0.3416,0.342,0.3389,0.3416,0.3415,0.3407,0.3357,0.3352,0.3402,0.3397,0.3335,0.3329,0.3324,0.3444,0.329,0.3288,0.3288,0.3573,0.3583,0.3593,0,0,0,0,0,0,0.3377,0.3383,0.3414,0.3404,0.3411,0.342,0.3412,0.3409,0.3428,0.3382,0.3371,0.3428,0.3333,0.3326,0.3344,0.3437,0.3288,0.3286,0.3562,0.3576,0.3588,0.3628,0,0,0,0,0,0,0.3374,0.338,0.3384,0.3404,0.3413,0.3442,0.3416,0.3412,0.3453,0.3447,0.3401,0.3389,0.3331,0.3347,0.3343,0.3432,0.3285,0.3551,0.3568,0.3584,0.3616,0.3641,0.3662,0,0,0,0,0,0.3371,0.3385,0.3383,0.3392,0.3415,0.3445,0.3447,0.344,0.3457,0.3452,0.345,0.3392,0.3452,0.3349,0.3343,0.3434,0.3544,0.3564,0.3583,0.3605,0.3636,0.3662,0,0,0,0,0,0,0.3347,0.3382,0.3378,0.3399,0.3419,0.3437,0.3444,0.3473,0.3472,0.3475,0.3432,0.3421,0.3495,0.3491,0.3381,0.3596,0.3519,0.3538,0.354,0.3568,0.3591,0.3554,0.3284,0,0,0,0,0,0.3352,0.337,0.3398,0.3415,0.342,0.3446,0.3467,0.3478,0.3492,0.349,0.3486,0.3525,0.3577,0.3582,0.3612,0.3679,0.3665,0.3776,0.3799,0.3816,0.3802,0.3885,0.3909,0.3656,0.3656,0.3656,0,0,0.3355,0.3376,0.3388,0.3414,0.3418,0.3437,0.3447,0.3487,0.3533,0.3484,0.3539,0.3583,0.3621,0.3701,0.3743,0.3693,0.3891,0.3841,0.3854,0.383,0.3907,0.393,0.395,0.367,0.3667,0.3665,0,0,0.3371,0.3373,0.3391,0.3408,0.3449,0.3459,0.3485,0.3534,0.3567,0.3641,0.366,0.3743,0.3809,0.3846,0.3878,0.4065,0.4013,0.4146,0.4198,0.428,0.4297,0.4312,0.4313,0.4327,0.415,0.415,0.4151,0,0.3372,0.3392,0.3403,0.3422,0.3455,0.3474,0.3509,0.3544,0.3613,0.3694,0.3668,0.3889,0.3875,0.4022,0.4075,0.4101,0.4122,0.4051,0.4294,0.4309,0.4323,0.4321,0.4336,0.4155,0.4154,0.4154,0.4153,0,0.3386,0.3417,0.3425,0.3447,0.348,0.3512,0.3567,0.3627,0.3699,0.3786,0.3976,0.3998,0.4138,0.4188,0.4148,0.4318,0.429,0.4298,0.4176,0.4348,0.4339,0.4353,0.4161,0.4159,0.4158,0.4157,0,0,0.3346,0.3423,0.3423,0.3459,0.3507,0.3536,0.3619,0.3731,0.3833,0.3951,0.4107,0.4227,0.4311,0.4359,0.4394,0.4432,0.4508,0.4399,0.4402,0.4315,0.4647,0.4431,0.4425,0.4559,0.4562,0.4565,0.4589,0,0.3347,0.3396,0.345,0.3511,0.3537,0.3607,0.3702,0.3825,0.3925,0.4067,0.4206,0.4343,0.4366,0.4428,0.4502,0.4499,0.4556,0.4497,0.4568,0.4568,0.4285,0.4439,0.4114,0.4093,0.4602,0.4605,0.4606,0,0.3354,0.3374,0.3436,0.3582,0.3605,0.3672,0.3825,0.3912,0.4114,0.4222,0.4411,0.4489,0.4612,0.4577,0.471,0.468,0.4682,0.4663,0.4665,0.4448,0.4381,0.4021,0.4099,0.463,0.4628,0.4626,0.4625,0,0.3294,0.3403,0.3454,0.3481,0.3609,0.3709,0.3807,0.3997,0.4096,0.4302,0.44,0.4605,0.4694,0.4754,0.4748,0.4737,0.4829,0.4816,0.4643,0.4625,0.4349,0.43,0.4922,0.4922,0.4922,0.4922,0.4922,0,0.3259,0.3317,0.3452,0.3439,0.3583,0.3711,0.3864,0.4008,0.4194,0.4316,0.4494,0.4586,0.4743,0.481,0.479,0.4751,0.4901,0.4653,0.4633,0.4359,0.4313,0.4784,0.4768,0.4923,0.4923,0.4922,0.4922,0,0.3185,0.3254,0.335,0.3491,0.3547,0.3667,0.3863,0.3974,0.4171,0.4306,0.4363,0.4597,0.4664,0.4766,0.4824,0.4786,0.4745,0.4705,0.4324,0.4257,0.4468,0.4456,0.4494,0.4487,0.4481,0.4476,0.4472,0,0.315,0.3161,0.3335,0.3416,0.3493,0.3646,0.3751,0.3946,0.4037,0.4267,0.4327,0.4469,0.4508,0.4546,0.4488,0.4436,0.4609,0.4108,0.4019,0.4455,0.4433,0.443,0.4426,0.368,0.367,0.3662,0.3655,0,0.3092,0.3186,0.33,0.3356,0.349,0.3563,0.3719,0.3755,0.3952,0.4044,0.4117,0.4135,0.4222,0.4013,0.4008,0.3937,0.4074,0.3926,0.4542,0.3819,0.3685,0.3664,0.3688,0.358,0.3587,0.3593,0.3597,0.36,0.3141,0.3219,0.3318,0.3378,0.3481,0.3443,0.3427,0.3533,0.3554,0.359,0.3749,0.3676,0.3732,0.3495,0.337,0.3312,0.3587,0.3449,0.3478,0.3515,0.3396,0.3257,0.3047,0.3051,0.3054,0.3058,0.3061,0,0.3125,0.3176,0.3274,0.3324,0.329,0.3343,0.3353,0.3251,0.3144,0.3226,0.3189,0.2905,0.2775,0.2855,0.2634,0.2604,0.2624,0.2509,0.2532,0.2608,0.2675,0.2517,0.1932,0.1928,0.1925,0.1921,0,0,0.3147,0.3158,0.314,0.304,0.3058,0.2895,0.2824,0.2711,0.2683,0.2504,0.2439,0.2588,0.2736,0.2283,0.223,0.2043,0.2309,0.196,0.2871,0.2973,0.3036,0.3225,0.3066,0,0,0,0,0]},{"header":{"parameterUnit":"m.s-1","parameterCategory":2,"la1":30.2991,"la2":30.254,"lo1":-89.0895,"lo2":-89.0444,"dy":0.0017,"dx":0.0017,"nx":28,"ny":28,"refTime":"2024-06-24T03:00:00:Z","depth":"2","parameterNumber":3,"parameterNumberName":"V-component_of_CURRENTS"},"data":[0,0,0,0,0,0,0,0,0,0,0,0,0,0,0,0,0,0,0,0,0,0,0,0,0,0,0,0,0,0,0,0,0,0,0,0,0,0,0,0,0,0,0,0,0,0,0,0,0,0,0,0,0,0,0,0,0,0,0.0159,0.0159,0,0.0106,0.0105,0.0104,0.0081,0.0081,0.0081,0.0082,0.0101,0.0101,0.0101,0,0,0,0,0,0,0,0,0,0,0,0,0,0.0141,0.0142,0.0159,0.0159,0.0158,0.0106,0.0105,0.0104,0.0081,0.0081,0.0081,0.0082,0.0101,0.0101,0.0101,0,0,0,0,0,0,0,0,0,0,0,0,0,0.0122,0.0143,0.0159,0.0143,0.0141,0.0106,0.0105,0.0104,0.0081,0.0081,0.0082,0.0082,0.0101,0.0101,0.0101,0.0093,0,0,0.0102,0.0102,0,0,0,0,0,0,0,0,0.0123,0.0123,0.0146,0.0144,0.0142,0.0103,0.0106,0.0105,0.008,0.01,0.0082,0.0082,0.011,0.0109,0.0093,0.0094,0.0094,0.0102,0.0102,0.0102,0.0102,0,0,0,0,0,0,0,0.0125,0.0124,0.0135,0.0145,0.0143,0.0104,0.0102,0.0104,0.0102,0.0099,0.0098,0.0096,0.0109,0.0093,0.0094,0.0095,0.0102,0.0102,0.0102,0.0103,0.013,0.0131,0,0,0,0,0,0,0.0142,0.0126,0.0137,0.0134,0.0137,0.0104,0.0102,0.0112,0.01,0.0099,0.0096,0.0095,0.0092,0.0093,0.0094,0.0148,0.0102,0.0103,0.0103,0.013,0.0131,0.0131,0,0,0,0,0,0,0.0142,0.0144,0.0139,0.013,0.0127,0.0105,0.0116,0.0111,0.0099,0.0098,0.0098,0.009,0.0092,0.0094,0.0118,0.0146,0.0103,0.0103,0.0129,0.013,0.0131,0.0214,0,0,0,0,0,0,0.0142,0.0145,0.0151,0.0132,0.0129,0.0139,0.0116,0.011,0.0099,0.0097,0.0093,0.0094,0.0093,0.0118,0.0119,0.0146,0.0103,0.0128,0.013,0.0131,0.0211,0.0218,0.0224,0,0,0,0,0,0.0142,0.0161,0.0152,0.0153,0.0141,0.014,0.0135,0.0117,0.0098,0.0105,0.0105,0.0095,0.0125,0.0119,0.012,0.0147,0.0128,0.0129,0.013,0.0208,0.0216,0.0223,0,0,0,0,0,0,0.0153,0.0159,0.015,0.0168,0.0162,0.0138,0.0143,0.0118,0.0116,0.0116,0.0107,0.011,0.014,0.0126,0.012,0.0155,0.0122,0.0123,0.018,0.0188,0.0195,0.0203,0.0103,0,0,0,0,0,0.016,0.0176,0.017,0.0182,0.0188,0.016,0.0153,0.0138,0.0134,0.0131,0.0127,0.0126,0.0141,0.0153,0.0156,0.0178,0.0149,0.0192,0.0199,0.0205,0.021,0.017,0.0173,0.0135,0.0135,0.0135,0,0,0.0166,0.017,0.0178,0.0185,0.0179,0.0208,0.0158,0.0157,0.0182,0.0137,0.0169,0.0149,0.0151,0.0181,0.0192,0.0178,0.0205,0.0206,0.0212,0.0214,0.0171,0.0175,0.0178,0.0136,0.0136,0.0136,0,0,0.0191,0.0197,0.0221,0.0233,0.0231,0.0229,0.0234,0.0214,0.0214,0.0236,0.021,0.0208,0.0227,0.0231,0.0239,0.028,0.0238,0.0272,0.0321,0.0282,0.0285,0.0287,0.0278,0.0279,0.0279,0.028,0.028,0,0.0197,0.0234,0.0224,0.0258,0.0281,0.0251,0.029,0.0293,0.0279,0.0295,0.0267,0.0279,0.0259,0.0311,0.0309,0.0299,0.0268,0.0297,0.0292,0.0293,0.0293,0.0283,0.0282,0.0284,0.0283,0.0283,0.0282,0,0.0255,0.0281,0.0303,0.0349,0.0367,0.0397,0.0412,0.0428,0.0419,0.0414,0.0442,0.0404,0.0416,0.0397,0.0363,0.0366,0.0341,0.0302,0.0275,0.0302,0.029,0.0288,0.029,0.0288,0.0287,0.0286,0,0,0.0289,0.0334,0.0345,0.0382,0.0422,0.0449,0.0511,0.0559,0.0618,0.0582,0.0648,0.0609,0.056,0.0561,0.0508,0.0451,0.0414,0.0368,0.0364,0.0366,0.034,0.0298,0.0291,0.0361,0.0361,0.036,0.0339,0,0.0341,0.0429,0.0428,0.0518,0.0578,0.0585,0.065,0.0685,0.0718,0.0776,0.0728,0.076,0.0639,0.0638,0.0564,0.045,0.0408,0.0425,0.0307,0.0304,0.0268,0.0287,0.0314,0.0293,0.0336,0.0336,0.0335,0,0.041,0.0467,0.0564,0.063,0.0655,0.0692,0.0813,0.0861,0.0933,0.0952,0.0964,0.0937,0.0877,0.0765,0.0594,0.0602,0.0478,0.0377,0.0374,0.0301,0.0257,0.0266,0.0287,0.0331,0.0332,0.0332,0.0332,0,0.0486,0.0556,0.0643,0.0676,0.0756,0.0787,0.082,0.0906,0.098,0.1062,0.112,0.1064,0.1038,0.0868,0.0648,0.0616,0.0456,0.0404,0.027,0.0267,0.0252,0.0247,0.0297,0.0297,0.0298,0.0298,0.0298,0,0.0574,0.0638,0.0678,0.0741,0.0839,0.0851,0.0966,0.1012,0.1104,0.1212,0.1191,0.1255,0.1044,0.0942,0.0725,0.0491,0.0521,0.0285,0.0253,0.0283,0.0282,0.0275,0.0273,0.0297,0.0297,0.0297,0.0297,0,0.0664,0.0689,0.0782,0.0854,0.088,0.0946,0.1033,0.1135,0.1191,0.1339,0.1366,0.1379,0.1242,0.1045,0.0792,0.0597,0.0381,0.0298,0.0361,0.0334,0.0208,0.0211,0.0163,0.0161,0.0159,0.0158,0.0157,0,0.0714,0.0784,0.0877,0.093,0.0954,0.1045,0.1126,0.1184,0.1286,0.1412,0.1486,0.1442,0.1425,0.1075,0.0757,0.0445,0.0385,0.0248,0.0179,0.0218,0.0192,0.0197,0.0201,0.021,0.021,0.0209,0.0209,0,0.0825,0.0852,0.0939,0.1054,0.1121,0.1217,0.1304,0.1397,0.1488,0.1594,0.1683,0.1679,0.1412,0.1117,0.0714,0.0491,0.0296,0.0227,0.026,0.0228,0.0257,0.0233,0.0237,0.0205,0.0205,0.0206,0.0206,0.0206,0.0886,0.0975,0.1079,0.1169,0.1249,0.1348,0.1425,0.1537,0.1675,0.1781,0.1778,0.1741,0.1467,0.0939,0.0607,0.0266,0.0277,0.0122,0.0126,0.013,0.0127,0.015,0.008,0.008,0.008,0.0079,0.0079,0,0.0968,0.1075,0.1189,0.1283,0.1349,0.1384,0.153,0.1597,0.1739,0.1818,0.1844,0.1555,0.1268,0.0945,0.0448,0.0141,0.0126,0.003,0.0086,0.0092,0.0097,0.0094,0.0037,0.0036,0.0035,0.0034,0,0,0.1028,0.1157,0.122,0.1325,0.139,0.1482,0.1552,0.1664,0.1737,0.1776,0.1747,0.1683,0.1346,0.0965,0.0589,0.0312,0.0257,0.0245,0.0312,0.0429,0.0437,0.0186,0.0192,0,0,0,0,0]}],[{"header":{"parameterUnit":"m.s-1","parameterCategory":2,"la1":30.2991,"la2":30.254,"lo1":-89.0895,"lo2":-89.0444,"dy":0.0017,"dx":0.0017,"nx":28,"ny":28,"refTime":"2024-06-24T03:00:00:Z","depth":"4","parameterNumber":2,"parameterNumberName":"U-component_of_CURRENTS"},"data":[0,0,0,0,0,0,0,0,0,0,0,0,0,0,0,0,0,0,0,0,0,0,0,0,0,0,0,0,0,0,0,0,0,0,0,0,0,0,0,0,0,0,0,0,0,0,0,0,0,0,0,0,0,0,0,0,0,0,0.1604,0.1604,0,0.1594,0.1594,0.1594,0.1578,0.1578,0.1578,0.1578,0.145,0.1447,0.1444,0,0,0,0,0,0,0,0,0,0,0,0,0,0.1651,0.165,0.1604,0.1604,0.1604,0.1594,0.1594,0.1594,0.1578,0.1578,0.1578,0.1578,0.1451,0.1447,0.1443,0,0,0,0,0,0,0,0,0,0,0,0,0,0.1633,0.165,0.1604,0.1597,0.1596,0.1594,0.1594,0.1593,0.1578,0.1578,0.1578,0.1578,0.1453,0.1448,0.1443,0.1416,0,0,0.1428,0.1426,0,0,0,0,0,0,0,0,0.1634,0.1631,0.1598,0.1597,0.1596,0.1589,0.1564,0.1529,0.1578,0.1583,0.1578,0.1578,0.1487,0.1479,0.1477,0.141,0.1405,0.1427,0.1424,0.1422,0.1421,0,0,0,0,0,0,0,0.1636,0.1632,0.1599,0.1598,0.1597,0.1608,0.1604,0.1558,0.1533,0.1583,0.1582,0.1584,0.1485,0.1482,0.1474,0.1403,0.1428,0.1423,0.142,0.1418,0.1408,0.1411,0,0,0,0,0,0,0.1638,0.1633,0.1599,0.1599,0.1617,0.1607,0.1603,0.159,0.1536,0.1529,0.1584,0.1583,0.149,0.1479,0.1469,0.148,0.1422,0.1418,0.1415,0.1405,0.1409,0.1411,0,0,0,0,0,0,0.1639,0.1634,0.1599,0.1618,0.1614,0.1606,0.1592,0.159,0.1619,0.1538,0.1528,0.1618,0.149,0.1476,0.1456,0.1473,0.1416,0.1411,0.1402,0.1406,0.141,0.1472,0,0,0,0,0,0,0.164,0.1634,0.1641,0.1617,0.1613,0.157,0.1592,0.159,0.1619,0.1618,0.1564,0.155,0.1489,0.1464,0.1451,0.1465,0.1407,0.1399,0.1404,0.1409,0.1466,0.1477,0.1487,0,0,0,0,0,0.1641,0.1626,0.1641,0.1638,0.1617,0.1568,0.1566,0.156,0.1621,0.1597,0.1606,0.1553,0.1488,0.1462,0.1446,0.1459,0.1396,0.1403,0.1408,0.1462,0.1475,0.1487,0,0,0,0,0,0,0.1646,0.1623,0.1638,0.1618,0.1591,0.1566,0.1572,0.1591,0.1587,0.1623,0.1569,0.1553,0.1534,0.151,0.1483,0.1481,0.1441,0.1444,0.1487,0.1499,0.1509,0.1534,0.1403,0,0,0,0,0,0.1655,0.1646,0.1615,0.1607,0.1604,0.1612,0.1611,0.1611,0.1602,0.1605,0.1578,0.1573,0.1545,0.1535,0.1487,0.1488,0.1528,0.1498,0.1508,0.1517,0.1533,0.1672,0.1696,0.1431,0.1431,0.1431,0,0,0.1666,0.165,0.1651,0.161,0.1615,0.1608,0.161,0.1615,0.1622,0.159,0.161,0.1587,0.1551,0.1536,0.153,0.152,0.1607,0.1525,0.1531,0.1543,0.1681,0.1707,0.173,0.1435,0.1435,0.1434,0,0,0.1668,0.1665,0.1661,0.1644,0.1642,0.1632,0.1646,0.1641,0.1646,0.1659,0.1648,0.1658,0.162,0.1595,0.1582,0.1636,0.1643,0.1631,0.1708,0.1843,0.1866,0.1887,0.1938,0.1963,0.1653,0.1653,0.1653,0,0.1691,0.1668,0.165,0.1645,0.1652,0.1655,0.1664,0.1658,0.1651,0.1658,0.1672,0.1703,0.1651,0.1668,0.1679,0.1653,0.1723,0.1652,0.1857,0.1879,0.1899,0.1947,0.1974,0.1657,0.1656,0.1656,0.1655,0,0.1654,0.168,0.1679,0.168,0.168,0.1677,0.1674,0.1679,0.1724,0.1723,0.1762,0.1752,0.1779,0.1765,0.1729,0.1838,0.1834,0.1839,0.1823,0.193,0.1972,0.1999,0.1662,0.1661,0.1659,0.1658,0,0,0.1612,0.1647,0.166,0.1695,0.1703,0.1698,0.1719,0.1708,0.1752,0.1776,0.1848,0.1829,0.1873,0.1868,0.186,0.1966,0.213,0.1979,0.1984,0.2023,0.2406,0.2172,0.2178,0.2205,0.2211,0.2215,0.2365,0,0.16,0.1609,0.1633,0.1687,0.1701,0.1728,0.1749,0.176,0.1782,0.1834,0.1875,0.1915,0.19,0.1945,0.206,0.2099,0.2212,0.2086,0.2302,0.2307,0.2083,0.2206,0.2234,0.2385,0.2391,0.2395,0.2399,0,0.1537,0.157,0.1605,0.1711,0.1725,0.1763,0.1818,0.185,0.1895,0.1928,0.2016,0.2025,0.2132,0.2144,0.235,0.2288,0.2365,0.2414,0.2423,0.2205,0.2125,0.2267,0.2447,0.2444,0.244,0.2437,0.2434,0,0.1467,0.1555,0.1589,0.1612,0.171,0.1761,0.183,0.1879,0.1925,0.2011,0.2069,0.2183,0.2293,0.2428,0.2483,0.246,0.2723,0.2697,0.2561,0.2542,0.2678,0.2654,0.2897,0.2897,0.2896,0.2896,0.2895,0,0.1393,0.1449,0.1576,0.1595,0.1695,0.1782,0.1887,0.1941,0.2051,0.2114,0.2159,0.2235,0.2395,0.2507,0.2561,0.2626,0.2801,0.2592,0.2589,0.2692,0.2669,0.2694,0.2668,0.2901,0.29,0.2899,0.2898,0,0.1299,0.1371,0.1444,0.1588,0.1663,0.1743,0.1948,0.1996,0.2116,0.2219,0.225,0.235,0.2476,0.2569,0.2767,0.2709,0.2777,0.2763,0.2829,0.2823,0.2484,0.246,0.2628,0.2621,0.2616,0.2611,0.2607,0,0.1252,0.1267,0.1434,0.1516,0.1602,0.176,0.1855,0.2016,0.2067,0.2251,0.2277,0.242,0.2466,0.2563,0.2671,0.2743,0.2724,0.2715,0.2624,0.2488,0.247,0.2454,0.2439,0.2599,0.2597,0.2596,0.2594,0,0.1183,0.123,0.1274,0.1443,0.1576,0.1692,0.1847,0.1885,0.2051,0.2186,0.2238,0.2257,0.2399,0.2467,0.2534,0.2581,0.2682,0.2658,0.2669,0.2583,0.2455,0.2438,0.2429,0.2575,0.2578,0.258,0.2581,0,0.1148,0.1137,0.1214,0.1354,0.1501,0.157,0.1676,0.177,0.1864,0.2059,0.2087,0.2238,0.2397,0.2387,0.2447,0.2457,0.2428,0.2336,0.2364,0.2386,0.2227,0.2023,0.2035,0,0,0,0,0,0.1127,0.1086,0.1157,0.1259,0.1377,0.1469,0.1634,0.1723,0.1905,0.1897,0.1987,0.2078,0.2136,0.2208,0.2175,0.2324,0.2425,0.2269,0.2331,0.247,0.2492,0.232,0,0,0,0,0,0,0.1105,0.1125,0.1095,0.1153,0.1198,0.1306,0.1395,0.1513,0.1526,0.1724,0.1785,0.1922,0.2029,0.214,0.2125,0.2147,0.2135,0.2377,0.237,0.2457,0.2477,0.2495,0.2326,0,0,0,0,0]},{"header":{"parameterUnit":"m.s-1","parameterCategory":2,"la1":30.2991,"la2":30.254,"lo1":-89.0895,"lo2":-89.0444,"dy":0.0017,"dx":0.0017,"nx":28,"ny":28,"refTime":"2024-06-24T03:00:00:Z","depth":"4","parameterNumber":3,"parameterNumberName":"V-component_of_CURRENTS"},"data":[0,0,0,0,0,0,0,0,0,0,0,0,0,0,0,0,0,0,0,0,0,0,0,0,0,0,0,0,0,0,0,0,0,0,0,0,0,0,0,0,0,0,0,0,0,0,0,0,0,0,0,0,0,0,0,0,0,0,0.0305,0.0306,0,0.0328,0.0328,0.0327,0.0327,0.0327,0.0328,0.0328,0.0344,0.0344,0.0345,0,0,0,0,0,0,0,0,0,0,0,0,0,0.0214,0.0216,0.0305,0.0306,0.0307,0.0328,0.0328,0.0327,0.0327,0.0327,0.0328,0.0328,0.0344,0.0344,0.0345,0,0,0,0,0,0,0,0,0,0,0,0,0,0.0241,0.0216,0.0305,0.0314,0.0316,0.0328,0.0328,0.0327,0.0327,0.0327,0.0328,0.0328,0.0344,0.0344,0.0345,0.0337,0,0,0.0345,0.0345,0,0,0,0,0,0,0,0,0.024,0.0244,0.0312,0.0314,0.0316,0.0331,0.0302,0.0332,0.0327,0.0316,0.0328,0.0329,0.0343,0.0344,0.0337,0.0338,0.0338,0.0345,0.0345,0.0346,0.0346,0,0,0,0,0,0,0,0.0238,0.0242,0.0308,0.0313,0.0315,0.0301,0.0305,0.0307,0.0321,0.0317,0.0319,0.0331,0.0343,0.0337,0.0338,0.0339,0.0345,0.0346,0.0346,0.0346,0.0368,0.0368,0,0,0,0,0,0,0.0251,0.0241,0.0307,0.0309,0.0285,0.0303,0.0307,0.032,0.0322,0.0324,0.0331,0.0331,0.0337,0.0338,0.0339,0.0377,0.0346,0.0346,0.0346,0.0367,0.0368,0.0368,0,0,0,0,0,0,0.0248,0.0256,0.0306,0.028,0.0287,0.0306,0.0319,0.0321,0.0335,0.0334,0.0335,0.0347,0.0337,0.0338,0.0351,0.0376,0.0346,0.0346,0.0367,0.0367,0.0368,0.0423,0,0,0,0,0,0,0.0246,0.0255,0.0264,0.0282,0.0289,0.0337,0.0319,0.0321,0.0344,0.0345,0.0347,0.0348,0.0337,0.0351,0.0351,0.0375,0.0346,0.0366,0.0367,0.0368,0.042,0.0425,0.0429,0,0,0,0,0,0.0242,0.0268,0.0264,0.0272,0.0302,0.0339,0.0341,0.035,0.0345,0.0361,0.0352,0.0349,0.0356,0.0351,0.0352,0.0377,0.0366,0.0367,0.0368,0.0418,0.0424,0.0429,0,0,0,0,0,0,0.0233,0.0272,0.0267,0.0302,0.0326,0.0342,0.0358,0.0362,0.0366,0.0362,0.0354,0.0355,0.0375,0.0365,0.0359,0.0383,0.0361,0.0362,0.0399,0.0405,0.0409,0.0419,0.0346,0,0,0,0,0,0.0234,0.0261,0.0292,0.0316,0.0332,0.0343,0.0357,0.0364,0.0374,0.0377,0.0382,0.0377,0.0375,0.0382,0.038,0.0395,0.0353,0.041,0.0414,0.0418,0.0425,0.037,0.037,0.0371,0.0371,0.0371,0,0,0.0237,0.026,0.0276,0.0316,0.0328,0.0364,0.0352,0.0383,0.0407,0.0377,0.0409,0.0396,0.0382,0.0397,0.0405,0.0395,0.0394,0.042,0.0423,0.0428,0.0371,0.0371,0.0371,0.0372,0.0372,0.0372,0,0,0.0261,0.0278,0.0309,0.0336,0.0369,0.0383,0.04,0.0427,0.0435,0.046,0.0438,0.0436,0.0452,0.0437,0.0432,0.0459,0.0418,0.0466,0.0502,0.0448,0.0447,0.0446,0.0383,0.0376,0.047,0.047,0.047,0,0.0263,0.0308,0.0323,0.0361,0.039,0.0399,0.044,0.0452,0.0478,0.0483,0.0482,0.0481,0.0468,0.0472,0.048,0.047,0.0429,0.0484,0.0453,0.0452,0.0449,0.0385,0.0377,0.0473,0.0473,0.0472,0.0472,0,0.0321,0.0349,0.0374,0.0424,0.045,0.0493,0.0517,0.0539,0.055,0.0555,0.0569,0.0545,0.0545,0.054,0.0521,0.0509,0.0479,0.0463,0.044,0.0453,0.0384,0.0374,0.0477,0.0476,0.0475,0.0474,0,0,0.0347,0.0406,0.0413,0.0442,0.0491,0.0525,0.056,0.0598,0.062,0.0631,0.065,0.064,0.0623,0.0614,0.0588,0.0543,0.0485,0.0505,0.0501,0.0444,0.0358,0.0346,0.0333,0.0463,0.0462,0.0461,0.0312,0,0.0391,0.0475,0.0484,0.0553,0.0603,0.0611,0.0647,0.0669,0.0679,0.0698,0.0668,0.0673,0.0654,0.0647,0.0607,0.0522,0.0464,0.0527,0.0354,0.0349,0.0337,0.0323,0.0458,0.0304,0.0302,0.03,0.0299,0,0.0449,0.0501,0.0585,0.063,0.065,0.0685,0.0737,0.0769,0.0776,0.0777,0.0772,0.074,0.0701,0.0668,0.054,0.0583,0.0477,0.0399,0.0391,0.0357,0.0319,0.029,0.028,0.0281,0.0283,0.0284,0.0285,0,0.049,0.0561,0.0635,0.0661,0.0723,0.0745,0.0776,0.0796,0.0826,0.0823,0.0828,0.0779,0.076,0.0637,0.0501,0.051,0.0335,0.0319,0.0202,0.0199,0.023,0.0233,0.0198,0.0199,0.0199,0.0199,0.02,0,0.0543,0.0597,0.0664,0.0708,0.0786,0.08,0.0862,0.0879,0.0896,0.0926,0.0879,0.0873,0.0751,0.0644,0.0503,0.0335,0.0333,0.0203,0.0162,0.0255,0.0263,0.0222,0.0227,0.0194,0.0195,0.0196,0.0197,0,0.057,0.0623,0.0706,0.0779,0.0811,0.0867,0.0929,0.0962,0.0975,0.1007,0.1002,0.0941,0.0812,0.0661,0.0451,0.0346,0.0167,0.0094,0.0201,0.0168,0.006,0.0069,-0.0051,-0.0053,-0.0054,-0.0055,-0.0056,0,0.0585,0.064,0.0759,0.0812,0.0846,0.0929,0.098,0.1014,0.1038,0.1041,0.1045,0.0944,0.088,0.0593,0.0427,0.0153,0.0113,0.0007,0.0041,0.0063,0.0035,0.0046,0.0057,-0.0059,-0.0059,-0.0059,-0.006,0,0.0602,0.0656,0.0732,0.0846,0.0915,0.0996,0.1056,0.1082,0.111,0.1124,0.107,0.0932,0.0791,0.0591,0.0385,0.0185,0.0076,-0.0008,-0.0006,0.0025,0.0053,0.0029,0.0041,-0.0064,-0.0064,-0.0063,-0.0063,0,0.0604,0.0659,0.0758,0.0863,0.0949,0.1013,0.1061,0.1079,0.1111,0.1106,0.1085,0.094,0.0871,0.0603,0.0406,0.0225,0.0175,0.01,0.0095,0.0098,0.0196,0.0258,0.0163,0,0,0,0,0,0.0592,0.0664,0.0754,0.0856,0.0937,0.099,0.108,0.1115,0.1147,0.1114,0.1101,0.0963,0.0705,0.0599,0.0416,0.0363,0.0132,0.0137,0.004,-0.0091,-0.0085,0.0005,0,0,0,0,0,0,0.0587,0.0678,0.0746,0.0826,0.0883,0.0963,0.1026,0.1063,0.1043,0.106,0.0935,0.0886,0.0645,0.0805,0.0401,0.0348,0.0253,0.0028,0.0023,-0.0094,-0.0089,-0.0085,0.001,0,0,0,0,0]}]]